Vertical_Velocity
8 6 4 3 3 3 3 4 4 4 4 4 4 4 4 4 4 3 1 -2 -2 -2 -1 -1 -2 -2 -2 -2 -1 -0 1 1 2 1 1 1 -0 -1 -1 -2 -2 -1 -1 -1 -1 -1 -1 -1 -1 -0 -0 -0 -1 -1 -1 -0 -0 -0 0 -0 -0 -0 -0 -0 -0 -1 -1 -2 -1
7 5 3 1 1 3 5 6 7 7 8 8 7 6 7 8 9 7 4 0 0 1 1 1 -0 -1 -2 -1 -1 0 1 2 2 1 1 0 -0 -1 -1 -1 -1 -0 -0 0 -0 -0 -0 -0 -0 -0 -0 -0 -0 -0 -0 0 1 1 1 0 -1 -1 -1 -0 -1 -1 -1 -2 -2
8 7 6 6 6 7 8 9 9 9 8 7 5 4 4 4 3 2 1 -0 -0 -0 -0 0 -0 0 0 1 1 2 2 2 2 1 1 0 0 0 0 0 0 1 1 1 1 1 1 1 1 1 1 1 1 1 1 1 1 1 1 0 -0 -1 -1 -1 -1 -1 -1 -1 -1
6 6 6 6 6 6 6 6 6 5 4 3 3 2 2 1 1 0 0 0 0 1 1 1 2 2 2 2 2 2 2 2 1 1 0 -0 -0 0 0 1 1 1 1 1 1 1 2 2 2 2 2 2 2 1 1 2 2 2 1 1 0 -0 -1 -1 -1 -1 -1 -1 -1
3 3 3 3 3 4 4 4 4 3 3 2 2 2 2 1 1 1 1 1 1 1 2 2 2 2 2 2 2 2 1 1 0 -0 -1 -1 -1 -0 0 1 1 1 1 1 1 1 2 2 2 2 2 2 2 2 2 2 2 2 1 1 1 0 -0 -0 -1 -1 -1 -1 -0
1 1 0 0 1 2 2 2 2 2 1 1 1 1 0 0 0 0 -0 -0 -0 0 1 1 1 1 1 1 0 0 -0 -1 -1 -1 -1 -1 -1 -0 0 1 1 0 0 0 0 1 1 2 2 2 2 2 2 2 2 2 2 2 2 2 1 1 1 -0 0 -0 -0 -0 0
-1 -2 -2 -1 -1 -0 -0 -0 -0 -0 -1 -1 -1 -1 -1 -1 -1 -1 -1 -1 -1 -0 0 1 1 1 0 0 -0 -1 -1 -1 -2 -2 -1 -1 -0 1 1 1 1 0 0 0 0 1 2 2 2 2 2 2 2 2 2 2 2 2 2 2 1 1 1 -0 1 1 0 -0 1
-2 -2 -2 -2 -1 -1 -1 -1 -1 -1 -1 -1 -1 -1 -1 -1 -1 -1 -1 -0 -0 0 0 0 0 0 0 -0 -1 -1 -2 -2 -2 -1 -1 -0 0 1 1 1 1 1 1 1 1 2 2 3 3 3 3 3 2 2 2 2 2 2 2 2 1 1 0 -0 0 1 0 -0 0
-2 -2 -1 -1 -1 -1 -1 -1 -1 -1 -0 -0 -0 -0 -0 -0 -0 -0 0 0 0 0 0 0 0 -0 -1 -1 -1 -2 -2 -2 -2 -2 -1 -1 -0 0 0 1 1 0 0 1 1 1 2 2 2 2 2 2 2 1 1 1 1 1 1 2 1 1 0 -0 -0 -0 -0 -0 -0
-1 -1 -1 -1 -1 -1 -1 -1 -1 -1 -1 -1 -1 -1 -1 -1 -1 -1 -0 -0 -0 -1 -1 -1 -1 -1 -1 -1 -2 -2 -2 -2 -2 -2 -1 -1 -1 -1 -1 -1 -1 -1 -1 -1 -0 -0 -0 -0 -0 -0 -0 -0 -0 -0 -1 -1 -1 -1 -1 0 0 0 -0 -1 -1 -1 -1 -1 -0
-1 -1 -1 -1 -1 -1 -1 -1 -1 -2 -2 -2 -3 -3 -3 -3 -3 -3 -3 -2 -2 -2 -2 -2 -2 -2 -2 -1 -1 -1 -1 -1 -1 -1 -1 -1 -1 -1 -1 -1 -2 -2 -2 -2 -2 -1 -1 -1 -1 -1 -1 -1 -1 -1 -2 -2 -2 -2 -2 -1 -1 -1 -1 -1 -1 -2 -2 -1 -0
-1 -1 -1 -1 -1 -2 -2 -2 -3 -3 -3 -4 -4 -5 -5 -5 -5 -5 -5 -4 -4 -4 -3 -3 -2 -2 -1 -1 -1 -0 0 1 1 1 1 0 0 0 -0 -1 -1 -2 -2 -2 -2 -2 -1 -1 -1 -1 -1 -1 -1 -1 -1 -1 -2 -2 -2 -1 -1 -0 -0 -0 -0 -1 -1 -0 0
-2 -2 -2 -2 -2 -3 -3 -3 -3 -4 -4 -4 -5 -5 -5 -6 -5 -5 -5 -5 -4 -4 -3 -2 -2 -1 -1 -0 -0 1 1 1 2 2 2 1 1 1 0 0 -0 -1 -1 -2 -2 -2 -2 -2 -1 -1 -0 0 0 0 -0 -0 -0 -0 -0 -0 0 1 1 1 1 0 -0 -0 0
-3 -3 -3 -3 -3 -3 -3 -3 -3 -3 -3 -4 -4 -4 -4 -4 -4 -3 -3 -3 -2 -2 -1 -1 -0 0 0 1 1 1 1 2 2 2 2 2 1 1 1 0 -0 -0 -1 -1 -1 -2 -2 -3 -2 -2 -1 -0 0 0 -0 -1 -1 -0 0 1 1 1 1 1 1 1 1 0 1
-4 -4 -4 -3 -3 -3 -3 -2 -2 -2 -2 -2 -2 -2 -1 -1 -1 -1 -0 -0 0 0 1 1 1 1 2 2 2 1 1 2 2 2 1 1 1 1 0 0 -0 -0 -0 -1 -1 -2 -3 -3 -3 -2 -1 -0 1 1 0 -0 -1 -1 -1 -0 0 1 1 1 1 1 1 1 1
-4 -3 -3 -3 -2 -2 -2 -1 -1 -1 -1 -0 -0 -0 0 1 1 1 2 2 2 2 2 2 2 2 2 2 2 2 2 1 1 1 1 1 1 0 0 -0 -0 -0 -0 -0 -1 -1 -2 -2 -2 -2 -1 0 1 2 2 1 -0 -1 -1 -0 -0 0 0 0 0 -0 -0 0 1
-2 -2 -2 -1 -1 -1 -1 -0 -0 -0 0 0 0 0 1 1 1 2 2 2 2 2 2 2 2 1 1 1 1 2 2 1 1 1 1 1 1 0 0 -0 -0 -0 -0 0 -0 -0 -1 -1 -2 -1 -1 0 1 2 2 2 1 1 0 0 0 0 0 0 0 -0 -1 -0 0
-1 -1 -1 -0 -0 -0 -0 -0 -0 -0 -0 -0 -0 -0 0 1 1 1 1 2 2 2 1 1 1 1 1 0 0 1 1 1 1 1 1 1 1 0 0 -0 -0 -0 -0 -0 -0 -0 -1 -1 -1 -1 -1 -0 1 2 2 2 2 1 1 1 1 1 1 1 0 0 0 -0 0
-0 -0 -0 -0 -0 -1 -1 -1 -1 -1 -1 -1 -1 -1 -0 -0 -0 0 0 0 1 1 1 0 -0 -0 0 0 -0 -0 0 1 0 -0 -0 -0 -0 -0 -1 -1 -1 -1 -1 -1 -1 -1 -1 -1 -1 -1 -1 -0 0 1 1 1 1 1 1 1 1 1 1 1 1 1 1 0 0
-1 -1 -1 -1 -1 -1 -1 -1 -1 -1 -1 -1 -1 -1 -1 -1 -0 -0 -0 -0 -0 0 0 0 -0 -1 -1 -1 -1 -1 -1 -0 -0 -1 -1 -1 -1 -1 -1 -1 -1 -2 -2 -2 -2 -2 -1 -1 -1 -1 -1 -0 -0 0 0 1 0 1 1 1 2 2 2 2 2 1 1 1 1
-3 -3 -3 -3 -2 -2 -2 -2 -2 -1 -1 -1 -1 -1 -1 -1 -1 -1 -1 -1 -1 -1 -1 -1 -1 -1 -1 -1 -1 -2 -2 -1 -1 -1 -1 -1 -2 -2 -2 -1 -1 -1 -1 -2 -2 -2 -2 -1 -1 -1 -1 -0 -0 -0 0 0 -0 0 1 1 1 2 2 2 2 2 2 1 0
-3 -3 -3 -3 -3 -3 -3 -3 -2 -2 -2 -2 -1 -1 -1 -1 -1 -1 -1 -1 -1 -1 -1 -1 -1 -1 -1 -1 -1 -1 -2 -2 -2 -1 -1 -1 -1 -1 -1 -0 -1 -0 -0 -1 -2 -2 -2 -1 -1 -1 -0 -0 -0 0 0 0 0 1 1 1 1 2 2 2 3 2 2 2 1
-3 -3 -2 -2 -3 -3 -3 -3 -2 -2 -2 -2 -2 -2 -2 -2 -1 -1 -1 -1 -1 -1 -1 -1 -1 -1 -1 -0 -0 -0 -1 -1 -1 -1 -1 -1 -1 -1 -0 0 0 0 0 -0 -1 -1 -1 -0 -0 -0 -0 0 0 1 1 1 1 2 2 2 2 3 3 3 3 3 3 2 2
-2 -2 -2 -2 -2 -2 -2 -2 -2 -2 -2 -2 -2 -1 -1 -1 -1 -1 -1 -1 -1 -1 -1 -1 -1 -1 -1 -1 -0 -0 -0 -0 -1 -1 -1 -1 -1 -1 -0 0 1 0 0 0 -0 -0 -0 0 0 0 0 0 0 1 1 2 2 2 3 3 4 4 4 4 4 4 3 3 2
-1 -1 -1 -1 -2 -2 -1 -1 -1 -1 -1 -1 -1 -1 -1 -1 -1 -1 -1 -1 -1 -1 -1 -1 -1 -1 -1 -1 -1 -1 -0 0 0 0 -0 -1 -1 -1 -0 -0 0 0 0 0 0 -0 -0 -0 -0 0 1 1 1 1 1 1 2 2 2 3 4 4 5 5 5 5 4 2 2
-1 -1 -1 -1 -1 -1 -1 -1 -1 -1 -1 -1 -1 -1 -1 -1 -1 -1 -1 -1 -1 -1 -1 -1 -1 -1 -1 -1 -1 -1 -1 -0 1 1 1 1 0 -0 -1 -1 -0 -0 -0 0 -0 -0 -1 -1 -1 -1 -1 -0 1 1 1 1 1 1 1 1 2 3 4 5 5 5 4 2 2
-1 -1 -1 -1 -1 -1 -1 -1 -1 -1 -1 -1 -1 -1 -1 -1 -1 -1 -1 -1 -1 -1 -1 -1 -1 -1 -1 -1 -1 -1 -1 -1 0 1 1 2 2 1 0 -0 -1 -1 -1 -0 -0 -0 -1 -1 -2 -3 -3 -2 -1 0 1 1 1 2 1 0 1 2 3 3 4 5 5 3 2
-0 -0 -0 -0 -0 -1 -1 -1 -1 -1 -1 -1 -1 -1 -1 -1 -1 -1 -1 -1 -1 -1 -1 -1 -1 -1 -0 -0 -0 -0 -1 -1 -0 0 1 1 1 1 1 1 -0 -1 -1 -1 -1 -0 -0 -1 -1 -2 -3 -4 -3 -2 -1 1 1 2 2 1 1 1 1 2 3 4 5 4 4
-1 -1 -1 -0 -1 -1 -1 -1 -1 -1 -1 -1 -1 -1 -1 -1 -1 -1 -1 -1 -1 -1 -1 -1 -1 -0 -0 -0 -1 -1 -1 -1 -1 -0 0 0 0 1 1 1 1 -0 -0 -0 -1 -1 -0 -1 -1 -1 -2 -4 -4 -4 -3 -1 -0 1 1 1 1 1 1 0 1 3 4 5 5
-1 -1 -1 -1 -1 -1 -1 -1 -1 -1 -1 -1 -1 -1 -1 -1 -1 -0 -0 -0 -0 -0 -0 0 0 -0 -0 -0 -0 -0 -0 -1 -1 -1 -0 0 0 0 0 1 1 0 -0 -0 -1 -1 -1 -1 -1 -2 -3 -3 -4 -5 -4 -3 -1 -1 -0 0 1 1 0 -1 -0 0 1 3 4
-1 -1 -1 -1 -1 -1 -1 -1 -1 -1 -1 -1 -1 -1 -1 -0 -0 -0 0 1 0 -0 -0 1 1 0 -0 -0 1 1 0 -1 -1 -1 -1 -0 -0 0 1 1 1 0 -0 -0 -1 -1 -2 -2 -2 -3 -3 -4 -5 -5 -5 -4 -3 -3 -2 -1 0 0 -0 -1 -1 -1 -1 -0 1
-1 -1 -1 -1 -1 -1 -1 -1 -1 -1 -1 -1 -1 -0 -0 -0 -0 -0 0 1 1 0 0 0 0 -0 -1 -0 -0 -0 -0 -0 -1 -1 -1 -1 -0 -0 0 1 1 0 -0 -0 -1 -2 -2 -2 -3 -3 -4 -5 -4 -5 -5 -5 -5 -4 -3 -2 -1 -1 -1 -1 -2 -2 -2 -2 -2
-1 -1 -1 -1 -1 -1 -1 -1 -1 -1 -1 -1 -1 -0 -0 -1 -1 -1 -0 0 1 1 0 -0 -0 -1 -1 -1 -1 -1 -1 -1 -1 -2 -2 -1 -1 -0 0 1 1 1 1 -0 -1 -1 -2 -2 -3 -3 -4 -4 -4 -4 -4 -4 -4 -4 -3 -3 -2 -1 -1 -1 -1 -1 -1 -1 -2
-1 -1 -1 -1 -1 -1 -1 -1 -1 -1 -1 -1 -1 -1 -0 -0 -1 -1 -1 -0 0 0 -0 -0 -0 -0 -1 -1 0 -0 -0 -1 -1 -1 -2 -2 -1 0 1 1 1 2 1 0 -1 -1 -1 -2 -2 -3 -4 -4 -4 -3 -3 -3 -3 -3 -3 -3 -2 -1 -1 -1 -1 -1 -1 -0 -1
-1 -1 -1 -1 -1 -1 -1 -1 -1 -1 -1 -1 -1 -1 -1 -0 -0 -0 -0 -0 0 -0 -0 -1 -0 -0 -0 -1 0 1 1 0 0 0 -0 -1 -0 1 2 2 2 2 2 1 -1 -1 -1 -2 -2 -3 -3 -4 -3 -3 -2 -1 -2 -1 -1 -1 -1 -1 -1 -1 -1 -1 -0 0 0
-0 -1 -1 -1 -1 -1 -1 -1 -1 -1 -1 -1 -1 -1 -1 -1 -1 -1 -0 1 1 0 -0 -0 -0 -1 -1 -1 -0 -0 0 0 0 -0 -0 0 0 1 1 3 4 3 2 1 -1 -2 -1 -2 -2 -2 -3 -3 -4 -3 -2 -1 -1 -0 0 1 1 1 1 1 -0 -1 -0 1 1
-0 -0 -1 -1 -1 -1 -1 -1 -1 -1 -1 -1 -1 -1 -1 -1 -2 -2 -1 0 1 0 -0 0 -0 -1 -2 -1 -1 -1 -2 -2 -2 -2 -2 -2 -0 0 1 2 4 4 3 1 -1 -2 -2 -2 -2 -3 -3 -4 -4 -4 -3 -2 -2 -1 1 2 1 2 2 2 1 0 1 2 2
-0 -0 -0 -1 -1 -1 -1 -1 -0 -0 -1 -1 -1 -1 -1 -1 -1 -2 -2 -1 -0 -0 -1 0 -0 -1 -2 -1 -1 -1 -2 -2 -3 -3 -4 -3 -2 -1 0 1 2 4 4 3 1 -1 -1 -2 -2 -3 -4 -4 -5 -5 -4 -3 -3 -2 -0 1 1 2 2 2 1 1 1 2 2
-0 -0 -0 -0 -0 -0 -1 -1 -1 -0 -0 -0 -1 -1 -1 -1 -1 -2 -3 -2 -2 -1 -1 0 -0 -1 -1 -1 -0 -0 -0 -1 -1 -2 -3 -4 -3 -2 0 1 1 3 4 5 3 1 1 0 -0 -2 -3 -4 -6 -6 -6 -5 -4 -3 -1 0 1 1 1 2 2 2 1 1 2
-0 -0 -0 -0 -0 -0 -0 -1 -1 -1 -0 -0 -1 -1 -1 -0 -1 -2 -2 -2 -2 -2 -1 -0 -0 -1 -1 -1 0 1 1 1 1 0 -1 -2 -2 -1 0 1 1 2 4 6 5 4 3 3 2 1 -1 -3 -4 -5 -6 -5 -4 -3 -2 -1 0 1 0 0 2 2 2 1 2
-1 -1 -1 -1 -1 -0 -0 -0 -1 -1 -1 -1 -1 -1 -1 -0 -1 -1 -1 -2 -2 -2 -2 -1 -1 -1 -1 -1 -0 1 3 3 4 4 4 3 2 2 2 3 3 3 4 6 7 7 6 6 6 5 4 1 -1 -2 -3 -3 -1 -1 -1 -1 1 1 1 1 2 3 3 4 3
Height
5711 5710 5710 5711 5712 5713 5714 5714 5715 5715 5716 5717 5718 5719 5719 5720 5720 5719 5718 5717 5717 5716 5716 5716 5716 5715 5715 5715 5714 5714 5714 5714 5714 5715 5715 5715 5715 5715 5715 5715 5714 5714 5714 5714 5714 5714 5714 5713 5713 5713 5713 5713 5712 5712 5712 5712 5712 5712 5712 5712 5712 5712 5712 5712 5711 5711 5710 5710 5710
5709 5708 5708 5709 5711 5712 5714 5715 5716 5717 5717 5718 5718 5718 5718 5718 5718 5718 5717 5716 5716 5715 5715 5715 5715 5714 5713 5713 5713 5712 5712 5712 5712 5713 5713 5713 5713 5713 5712 5712 5712 5712 5712 5712 5711 5711 5711 5711 5711 5710 5710 5710 5710 5710 5709 5709 5709 5709 5709 5709 5709 5709 5708 5708 5707 5707 5707 5707 5707
5706 5707 5707 5709 5710 5712 5713 5714 5714 5715 5715 5714 5713 5712 5712 5712 5712 5712 5712 5711 5711 5711 5711 5711 5711 5711 5711 5711 5711 5711 5711 5711 5711 5711 5711 5711 5710 5710 5710 5710 5709 5709 5709 5709 5709 5709 5708 5708 5708 5708 5708 5707 5707 5707 5707 5707 5707 5706 5706 5706 5706 5705 5705 5704 5704 5704 5704 5703 5703
5702 5703 5704 5705 5706 5707 5708 5708 5708 5708 5708 5708 5709 5709 5709 5709 5709 5709 5709 5709 5709 5709 5709 5709 5709 5709 5709 5709 5709 5709 5709 5709 5709 5709 5708 5708 5708 5708 5707 5707 5707 5707 5707 5707 5706 5706 5706 5706 5706 5705 5705 5705 5705 5704 5704 5703 5703 5703 5702 5702 5702 5702 5702 5701 5701 5701 5700 5700 5700
5702 5702 5703 5704 5704 5705 5705 5706 5706 5706 5707 5707 5707 5707 5707 5707 5707 5707 5707 5707 5707 5707 5707 5707 5707 5707 5707 5707 5707 5707 5707 5707 5707 5706 5706 5706 5705 5705 5705 5704 5704 5704 5704 5704 5704 5704 5704 5703 5703 5703 5702 5702 5702 5701 5701 5700 5700 5699 5699 5699 5698 5698 5698 5697 5697 5697 5697 5697 5697
5701 5702 5702 5703 5703 5704 5704 5704 5705 5705 5705 5705 5705 5706 5706 5706 5706 5706 5706 5706 5705 5705 5705 5705 5705 5705 5705 5705 5705 5705 5705 5705 5704 5704 5704 5703 5703 5702 5702 5702 5702 5702 5702 5702 5702 5702 5701 5701 5700 5700 5699 5699 5698 5697 5697 5697 5697 5696 5696 5695 5695 5695 5694 5694 5694 5694 5693 5693 5693
5698 5699 5700 5701 5701 5702 5702 5703 5703 5703 5703 5704 5704 5704 5704 5704 5704 5704 5704 5704 5704 5704 5703 5703 5703 5703 5703 5703 5703 5703 5702 5702 5702 5702 5701 5701 5701 5700 5700 5700 5700 5700 5700 5699 5699 5699 5698 5698 5697 5697 5696 5696 5695 5694 5694 5693 5693 5693 5692 5692 5692 5691 5691 5691 5690 5690 5690 5689 5689
5697 5698 5698 5699 5700 5700 5701 5701 5702 5702 5702 5702 5702 5702 5702 5702 5702 5702 5702 5702 5702 5702 5702 5702 5702 5701 5701 5701 5701 5701 5700 5700 5700 5699 5699 5699 5699 5698 5698 5698 5698 5697 5697 5697 5697 5696 5695 5695 5694 5694 5693 5692 5692 5691 5690 5690 5690 5690 5689 5689 5688 5688 5687 5687 5686 5686 5686 5685 5685
5696 5696 5697 5697 5698 5699 5699 5700 5700 5700 5700 5700 5701 5701 5701 5701 5701 5701 5701 5701 5700 5700 5700 5700 5700 5699 5699 5699 5698 5698 5698 5698 5697 5697 5697 5697 5697 5696 5696 5696 5695 5695 5694 5694 5693 5693 5692 5692 5691 5690 5690 5689 5688 5688 5687 5687 5687 5686 5686 5685 5685 5684 5683 5683 5682 5682 5682 5681 5681
5694 5695 5696 5696 5697 5697 5698 5698 5698 5698 5699 5699 5699 5699 5699 5699 5699 5699 5699 5699 5698 5698 5698 5698 5698 5697 5697 5697 5697 5696 5696 5696 5695 5695 5695 5694 5694 5694 5693 5693 5692 5692 5691 5690 5690 5689 5688 5688 5687 5687 5686 5686 5685 5684 5684 5683 5683 5683 5682 5682 5681 5681 5680 5679 5678 5678 5677 5677 5677
5693 5693 5694 5694 5695 5695 5696 5696 5697 5697 5697 5697 5697 5697 5697 5697 5697 5697 5697 5697 5697 5697 5696 5696 5696 5696 5695 5695 5694 5694 5693 5693 5693 5692 5692 5692 5691 5691 5690 5690 5689 5689 5688 5687 5686 5686 5685 5684 5684 5683 5682 5682 5682 5681 5680 5680 5679 5679 5678 5678 5677 5677 5676 5675 5674 5674 5673 5672 5672
5691 5692 5692 5692 5693 5694 5694 5695 5695 5695 5695 5696 5696 5696 5696 5696 5696 5695 5695 5695 5695 5695 5694 5694 5694 5693 5693 5692 5692 5692 5691 5691 5690 5690 5689 5689 5688 5688 5687 5687 5686 5686 5685 5684 5683 5682 5682 5681 5680 5680 5679 5678 5678 5677 5677 5676 5676 5675 5675 5674 5673 5673 5672 5671 5670 5669 5669 5668 5668
5690 5690 5691 5691 5692 5692 5692 5693 5693 5693 5694 5694 5694 5694 5694 5694 5694 5693 5693 5693 5693 5692 5692 5692 5692 5691 5691 5690 5690 5689 5688 5688 5687 5687 5687 5686 5686 5685 5684 5684 5683 5682 5682 5681 5680 5679 5678 5677 5677 5676 5676 5675 5674 5674 5673 5672 5672 5672 5671 5670 5670 5669 5668 5667 5666 5665 5665 5664 5664
5689 5690 5690 5690 5690 5691 5691 5691 5691 5692 5692 5692 5692 5692 5692 5691 5691 5691 5691 5691 5690 5690 5690 5689 5689 5688 5688 5687 5687 5686 5686 5685 5685 5684 5684 5683 5682 5682 5682 5681 5680 5679 5678 5678 5677 5676 5675 5674 5673 5673 5672 5672 5671 5670 5669 5668 5668 5667 5667 5667 5666 5665 5664 5663 5662 5662 5661 5661 5660
5688 5689 5689 5689 5689 5689 5689 5689 5689 5689 5689 5689 5689 5689 5689 5689 5688 5688 5688 5687 5687 5687 5687 5686 5686 5685 5685 5684 5684 5683 5683 5682 5682 5681 5681 5680 5679 5679 5678 5677 5677 5676 5675 5674 5673 5672 5672 5671 5670 5669 5668 5667 5667 5666 5665 5664 5664 5663 5662 5662 5662 5661 5660 5659 5659 5658 5657 5657 5657
5687 5687 5687 5687 5688 5688 5688 5688 5687 5687 5687 5687 5687 5687 5687 5686 5686 5686 5685 5685 5684 5684 5684 5683 5683 5682 5682 5682 5681 5680 5680 5679 5678 5678 5677 5677 5676 5675 5674 5673 5673 5672 5671 5670 5669 5668 5667 5667 5666 5665 5664 5663 5663 5662 5661 5661 5660 5659 5658 5657 5657 5656 5656 5655 5654 5654 5653 5653 5652
5686 5686 5686 5686 5686 5686 5686 5686 5686 5685 5685 5685 5685 5684 5684 5684 5683 5683 5683 5682 5682 5682 5681 5681 5680 5680 5679 5678 5678 5677 5677 5676 5675 5674 5674 5673 5672 5671 5671 5670 5669 5668 5667 5666 5665 5664 5663 5662 5661 5661 5660 5659 5658 5658 5657 5657 5656 5655 5654 5653 5653 5652 5651 5651 5650 5649 5649 5648 5648
5684 5684 5684 5684 5684 5684 5684 5684 5684 5683 5683 5683 5683 5682 5682 5682 5681 5681 5680 5680 5679 5679 5678 5678 5677 5677 5676 5675 5674 5674 5673 5672 5672 5671 5670 5669 5668 5667 5667 5666 5665 5664 5663 5662 5661 5660 5659 5658 5657 5656 5656 5655 5654 5653 5653 5652 5652 5651 5650 5649 5649 5648 5647 5646 5646 5645 5645 5644 5644
5682 5682 5682 5682 5682 5682 5682 5682 5682 5682 5681 5681 5681 5680 5680 5679 5679 5678 5678 5677 5677 5676 5675 5674 5674 5673 5672 5672 5671 5670 5669 5668 5668 5667 5666 5665 5664 5663 5662 5662 5661 5659 5658 5657 5657 5656 5655 5654 5653 5652 5651 5650 5650 5649 5648 5648 5647 5647 5646 5646 5645 5644 5643 5642 5642 5641 5640 5640 5640
5681 5681 5681 5681 5680 5680 5680 5680 5679 5679 5678 5678 5678 5677 5677 5676 5676 5675 5675 5674 5673 5672 5672 5671 5670 5669 5669 5668 5667 5666 5665 5665 5664 5663 5662 5661 5660 5659 5658 5657 5656 5655 5654 5653 5652 5651 5650 5649 5648 5648 5647 5646 5645 5645 5644 5643 5643 5642 5642 5642 5641 5640 5639 5638 5638 5637 5636 5636 5635
5679 5679 5679 5678 5678 5677 5677 5677 5677 5676 5676 5675 5675 5674 5673 5673 5672 5672 5671 5670 5670 5669 5668 5667 5667 5666 5665 5664 5663 5662 5662 5661 5660 5659 5657 5657 5656 5655 5654 5653 5652 5651 5650 5649 5647 5647 5646 5645 5644 5643 5643 5642 5641 5641 5640 5639 5639 5638 5637 5637 5636 5636 5635 5634 5633 5633 5632 5631 5630
5677 5676 5676 5675 5675 5675 5674 5674 5673 5673 5672 5672 5671 5671 5670 5669 5669 5668 5667 5667 5666 5665 5664 5664 5663 5662 5661 5660 5660 5659 5657 5657 5656 5655 5654 5652 5652 5651 5649 5648 5647 5646 5645 5644 5643 5642 5641 5641 5640 5639 5638 5637 5637 5636 5636 5635 5634 5634 5633 5632 5632 5631 5630 5629 5629 5628 5627 5626 5626
5673 5673 5672 5672 5672 5671 5671 5671 5670 5670 5669 5668 5668 5667 5667 5666 5665 5664 5664 5663 5662 5662 5661 5660 5659 5658 5657 5657 5656 5655 5654 5653 5652 5651 5650 5648 5647 5646 5645 5644 5643 5642 5641 5640 5638 5637 5637 5636 5635 5634 5633 5633 5632 5631 5631 5630 5629 5629 5628 5627 5627 5626 5625 5624 5623 5623 5622 5621 5620
5670 5670 5669 5669 5668 5668 5668 5667 5667 5667 5666 5665 5665 5664 5663 5663 5662 5661 5661 5660 5659 5658 5657 5657 5656 5655 5654 5653 5652 5651 5650 5649 5648 5647 5645 5644 5643 5642 5641 5640 5638 5637 5636 5635 5634 5633 5632 5631 5630 5629 5628 5628 5627 5626 5626 5625 5624 5623 5623 5622 5622 5621 5620 5619 5618 5617 5617 5616 5615
5667 5667 5667 5666 5666 5665 5665 5665 5664 5664 5663 5663 5662 5662 5661 5660 5659 5658 5658 5657 5656 5655 5654 5653 5652 5651 5650 5649 5648 5647 5646 5645 5644 5642 5641 5640 5639 5637 5636 5635 5634 5633 5631 5630 5629 5628 5627 5626 5625 5624 5623 5622 5622 5621 5620 5620 5619 5618 5617 5617 5617 5616 5615 5614 5613 5612 5611 5610 5609
5665 5665 5664 5664 5663 5663 5663 5662 5662 5661 5661 5660 5659 5659 5658 5657 5657 5656 5655 5654 5653 5652 5651 5650 5649 5647 5647 5645 5644 5643 5642 5641 5640 5638 5637 5636 5634 5633 5632 5630 5629 5628 5627 5625 5624 5622 5621 5620 5619 5618 5617 5617 5616 5616 5615 5614 5613 5612 5612 5611 5611 5610 5610 5609 5608 5607 5606 5604 5603
5663 5662 5662 5662 5661 5661 5660 5660 5659 5659 5658 5657 5657 5656 5655 5654 5653 5652 5652 5651 5650 5648 5647 5646 5645 5644 5643 5642 5640 5639 5638 5637 5636 5634 5633 5632 5630 5629 5627 5626 5624 5623 5622 5620 5619 5617 5616 5615 5614 5612 5612 5611 5610 5610 5609 5609 5608 5607 5606 5605 5605 5604 5603 5603 5602 5601 5600 5599 5597
5661 5660 5660 5660 5659 5659 5658 5657 5657 5656 5656 5655 5654 5653 5652 5651 5650 5649 5648 5647 5646 5645 5644 5642 5641 5640 5639 5637 5636 5635 5634 5632 5631 5630 5628 5627 5626 5624 5623 5621 5620 5618 5617 5615 5614 5612 5611 5610 5608 5607 5606 5605 5604 5604 5603 5603 5602 5601 5601 5600 5599 5598 5597 5596 5596 5595 5594 5593 5592
5659 5658 5658 5657 5657 5656 5656 5655 5654 5653 5652 5652 5651 5650 5649 5648 5647 5646 5645 5643 5642 5641 5640 5639 5637 5636 5635 5633 5632 5631 5629 5628 5627 5625 5624 5622 5621 5620 5618 5617 5615 5613 5612 5610 5609 5607 5606 5604 5603 5602 5600 5599 5598 5598 5597 5597 5596 5595 5594 5593 5592 5592 5591 5589 5589 5588 5587 5586 5585
5657 5656 5655 5655 5654 5653 5653 5652 5651 5650 5649 5648 5647 5646 5645 5644 5643 5642 5641 5640 5638 5637 5636 5635 5633 5632 5631 5629 5628 5627 5625 5623 5622 5621 5619 5618 5617 5615 5613 5612 5610 5608 5607 5605 5603 5602 5600 5599 5597 5596 5594 5593 5592 5592 5591 5591 5590 5589 5588 5587 5586 5585 5584 5582 5582 5581 5580 5579 5578
5654 5653 5653 5652 5652 5651 5650 5649 5648 5647 5646 5645 5644 5643 5642 5641 5639 5638 5637 5636 5634 5633 5632 5630 5629 5628 5626 5625 5623 5622 5620 5619 5617 5616 5614 5613 5612 5610 5608 5607 5605 5603 5601 5599 5597 5596 5594 5593 5591 5590 5588 5587 5586 5585 5584 5584 5583 5582 5582 5581 5579 5578 5577 5576 5574 5573 5572 5572 5571
5652 5651 5650 5649 5648 5647 5647 5645 5644 5643 5642 5641 5640 5639 5638 5637 5636 5634 5633 5632 5631 5629 5628 5626 5625 5623 5622 5621 5619 5617 5616 5614 5612 5611 5609 5608 5607 5605 5603 5602 5600 5597 5596 5594 5592 5590 5588 5586 5585 5583 5582 5580 5579 5578 5577 5577 5576 5575 5574 5573 5572 5571 5570 5568 5567 5566 5565 5564 5563
5649 5648 5647 5646 5645 5644 5643 5642 5641 5640 5639 5638 5637 5636 5634 5633 5632 5631 5629 5628 5627 5625 5624 5622 5621 5619 5617 5616 5615 5613 5611 5609 5607 5606 5604 5602 5601 5599 5598 5596 5594 5592 5590 5587 5585 5583 5581 5580 5578 5576 5575 5573 5572 5571 5570 5569 5568 5567 5567 5566 5565 5564 5562 5561 5560 5559 5558 5557 5555
5646 5645 5644 5643 5642 5641 5640 5639 5638 5637 5636 5634 5633 5632 5631 5629 5628 5627 5625 5624 5622 5621 5619 5617 5616 5614 5613 5611 5610 5608 5606 5604 5602 5600 5598 5597 5595 5594 5592 5590 5588 5586 5583 5581 5578 5577 5575 5572 5571 5569 5567 5566 5565 5564 5563 5562 5561 5560 5559 5558 5557 5556 5555 5553 5552 5551 5550 5549 5548
5643 5642 5641 5640 5639 5638 5637 5636 5634 5633 5632 5631 5629 5628 5627 5625 5624 5622 5621 5619 5618 5616 5614 5613 5611 5609 5607 5606 5604 5602 5600 5598 5597 5595 5593 5591 5589 5587 5586 5584 5582 5579 5577 5574 5571 5569 5567 5565 5563 5562 5560 5558 5557 5556 5555 5554 5553 5552 5551 5550 5549 5548 5547 5545 5544 5543 5542 5541 5540
5640 5639 5638 5637 5636 5635 5633 5632 5631 5630 5628 5627 5626 5624 5622 5621 5619 5618 5616 5615 5613 5611 5610 5608 5606 5604 5602 5600 5598 5597 5595 5592 5591 5589 5587 5585 5583 5581 5579 5577 5575 5572 5570 5567 5564 5562 5560 5557 5555 5553 5552 5550 5549 5547 5547 5546 5545 5544 5543 5542 5541 5540 5538 5537 5536 5535 5534 5533 5532
5637 5636 5635 5634 5633 5631 5630 5629 5627 5626 5624 5623 5622 5620 5618 5617 5615 5613 5612 5610 5608 5607 5605 5603 5601 5599 5597 5595 5593 5591 5589 5587 5584 5582 5580 5578 5576 5574 5572 5571 5568 5566 5563 5560 5557 5554 5552 5550 5547 5545 5543 5541 5540 5539 5538 5537 5536 5535 5534 5533 5532 5531 5530 5528 5527 5526 5525 5524 5523
5634 5633 5632 5630 5629 5628 5627 5625 5624 5622 5621 5619 5617 5616 5614 5612 5611 5609 5607 5606 5604 5602 5600 5598 5596 5594 5592 5590 5587 5585 5583 5580 5578 5575 5573 5572 5569 5567 5565 5563 5561 5559 5556 5552 5549 5547 5544 5542 5539 5536 5534 5532 5530 5529 5528 5527 5526 5525 5524 5523 5522 5521 5520 5519 5517 5517 5516 5515 5514
5631 5629 5628 5627 5626 5624 5623 5621 5620 5618 5617 5615 5613 5612 5610 5608 5606 5604 5602 5600 5598 5597 5595 5593 5591 5588 5586 5584 5581 5579 5577 5574 5571 5569 5566 5564 5562 5560 5557 5555 5553 5551 5548 5545 5542 5539 5536 5533 5531 5527 5525 5522 5520 5519 5518 5517 5516 5515 5514 5513 5512 5511 5510 5508 5507 5506 5505 5504 5504
5627 5626 5624 5623 5622 5620 5619 5617 5616 5614 5612 5611 5609 5607 5605 5603 5601 5599 5597 5595 5592 5591 5589 5587 5584 5582 5579 5577 5575 5572 5570 5568 5565 5562 5559 5556 5554 5552 5549 5547 5544 5542 5540 5537 5534 5531 5527 5525 5522 5519 5516 5512 5510 5508 5507 5506 5505 5504 5503 5502 5501 5500 5499 5497 5497 5495 5495 5494 5492
5623 5622 5621 5619 5618 5616 5615 5613 5612 5610 5608 5606 5604 5602 5600 5598 5596 5593 5591 5589 5587 5585 5582 5580 5578 5575 5573 5570 5568 5566 5563 5561 5558 5555 5552 5549 5546 5544 5541 5538 5536 5533 5531 5528 5525 5522 5519 5515 5512 5509 5506 5502 5500 5498 5496 5495 5494 5493 5492 5491 5489 5488 5487 5486 5485 5484 5483 5482 5481